Location: Columbia
(38.9520°N, 92.3340°W)
Time: 05:52:21
(UTC-05:00)

Cosmos 1633 - Visible Passes

Search period start: 03 September 2015 00:00
Search period end: 13 September 2015 00:00
Orbit: 482 x 501 km, 82.5° (Epoch: 01 September)

Date Brightness Start Highest point End Pass type
(mag) Time Alt. Az. Time Alt. Az. Time Alt. Az.
03 Sep 5.5 05:56:27 10° NNE 05:59:31 24° ENE 06:02:37 10° SE visible
04 Sep 6.0 05:34:34 10° NNE 05:36:55 16° ENE 05:39:23 10° ESE visible
05 Sep 6.4 05:13:23 10° NE 05:14:16 11° ENE 05:15:23 10° E visible
06 Sep 6.5 20:10:37 10° W 20:12:07 12° WNW 20:13:28 10° NW visible
07 Sep 2.9 06:01:10 10° N 06:04:56 74° E 06:08:40 10° SSE visible
08 Sep 3.9 05:38:48 10° N 05:42:26 45° E 05:46:02 10° SSE visible
09 Sep 4.8 05:16:34 10° NNE 05:19:53 29° ENE 05:23:12 10° SE visible
10 Sep 5.5 04:54:30 10° NNE 04:57:16 20° ENE 05:00:07 10° ESE visible
11 Sep 5.9 04:32:48 10° NE 04:34:37 13° ENE 04:36:36 10° ESE visible
11 Sep 3.3 06:06:37 10° NNW 06:10:03 34° W 06:13:26 10° SSW visible
12 Sep 2.7 05:43:55 10° NNW 05:47:36 54° W 05:51:14 10° S visible
